Back to catalog

CZ-6A R/B

AliveSSO
NORAD 59344·ROCKET BODY·🇨🇳 China

Launched Mar 26, 2024 from Taiyuan Satellite Launch Center

Loading…

Next Passes (next 24 hours)

TLE

FreshSource: Space-Track

Epoch: Sep 14, 2026, 12:49 UTC

1 59344U 24058B   26257.53440598 -.00000025  00000-0  80600-5 0  9991
2 59344  98.7779 284.9959 0077224 254.4463 104.8183 14.28649061128726

Track CZ-6A R/B in real time with AllMySat

Download on the App Store